Regional Weather Roundup
Issued by NWS

Home | Current Version | Previous Version | Graphics & Text | Print | Product List | Glossary On
Versions: 1 2 3 4 5 6 7 8 9 10 11 12 13 14 15 16 17 18 19 20 21 22 23 24 25 26 27 28 29 30 31 32 33 34 35 36 37 38 39 40 41 42 43 44 45 46 47 48 49 50
000
ASUS43 KOAX 250110
RWRNE

WEATHER ROUNDUP FOR NEBRASKA
NATIONAL WEATHER SERVICE OMAHA NE
800 PM CDT FRI MAR 24 2017

NOTES: SATELLITE DATA IS BEING USED TO AUGMENT CLOUD COVER ABOVE
       12000 FEET.
       "FAIR" INDICATES FEW OR NO CLOUDS BELOW 12,000 FEET WITH NO
       SIGNIFICANT WEATHER AND/OR OBSTRUCTIONS TO VISIBILITY.

  * THESE STATIONS DO NOT REPORT WEATHER SUCH AS RAIN...SNOW OR FOG.

NEZ001>004-019>022-054>056-250200-
NEBRASKA PANHANDLE

CITY           SKY/WX    TMP DP  RH WIND       PRES   REMARKS
SCOTTSBLUFF    CLEAR     52  28  39 E6        30.09S
ALLIANCE       MOCLDY    48  29  47 E7        30.10R
CHADRON        CLEAR     54  30  40 E9        30.07S
KIMBALL        CLEAR     48  32  53 E8        30.12S
SIDNEY         MOCLDY    49  29  46 NE8       30.12R
$$

NEZ057>060-069>072-079>082-250200-
SOUTHWEST NEBRASKA

CITY           SKY/WX    TMP DP  RH WIND       PRES   REMARKS
NORTH PLATTE   CLOUDY    46  41  82 N6        30.08R
IMPERIAL       CLOUDY    44  36  73 N10       30.09F
LEXINGTON      CLOUDY    42  39  89 NE10      30.04R
MCCOOK         CLOUDY    42  40  92 N21       30.05R
OGALLALA       CLOUDY    48  33  56 NE6       30.10S
$$

NEZ005>010-023>029-035>040-094-250200-
NORTH CENTRAL NEBRASKA

CITY           SKY/WX    TMP DP  RH WIND       PRES   REMARKS
VALENTINE      PTCLDY    48  31  51 E8        30.11R
AINSWORTH      MOCLDY    43  34  69 N7        30.10R
BROKEN BOW     LGT RAIN  42  40  92 N9        30.07R
O`NEILL        MOCLDY    43  40  89 N5        30.09R
ORD            RAIN      42  38  85 N12       30.05R FOG
THEDFORD       CLOUDY    47  32  55 N8        30.10R
$$

NEZ041-046>049-061>064-073>077-083>087-250200-
SOUTH CENTRAL NEBRASKA

CITY           SKY/WX    TMP DP  RH WIND       PRES   REMARKS
GRAND ISLAND   CLOUDY    40  39  97 N17G25    30.03R WCI  31
AURORA         CLOUDY    40  38  95 N20G26    30.01R WCI  30
HASTINGS       CLOUDY    41  37  86 N21G30    30.01R
HEBRON         CLOUDY    42  39  86 N17G23    29.97R
HOLDREGE       CLOUDY    40  38  91 N22       30.02R WCI  30
KEARNEY *      CLOUDY    39  36  87 N16       30.03S WCI  30
YORK           CLOUDY    39  39 100 NE22      29.99S WCI  29
$$

NEZ011>018-030>034-042>045-250200-
NORTHEAST NEBRASKA

CITY           SKY/WX    TMP DP  RH WIND       PRES   REMARKS
NORFOLK        LGT RAIN  40  38  93 N15       30.04S FOG     WCI  32
ALBION         RAIN      42  39  89 N13G18    30.04F
BLAIR          LGT RAIN  42  40  95 N15G24    29.98R
FREMONT        RAIN      42  41  99 N10G16    30.00S
TEKAMAH        LGT RAIN  42  40  92 N20       30.00F FOG
WAYNE          DRIZZLE   41  40  98 N13       30.06S
$$

NEZ050>053-065>068-078-088>093-250200-
SOUTHEAST NEBRASKA

CITY           SKY/WX    TMP DP  RH WIND       PRES   REMARKS
LINCOLN        CLOUDY    43  40  89 N21G29    29.98S
OMAHA EPPLEY   LGT RAIN  43  38  82 N18       29.98R
BEATRICE       CLOUDY    45  42  91 NE20G29   29.93R
FALLS CITY     LGT RAIN  51  50  96 NE13      29.86S
NEBRASKA CITY  RAIN      43  43  99 N18       29.93R
PLATTSMOUTH    RAIN      43  40  89 N10G16    29.96R
$$

NEZ044-045-051>053-067-250200-
OMAHA AREA

CITY           SKY/WX    TMP DP  RH WIND       PRES   REMARKS
OMAHA EPPLEY   LGT RAIN  43  38  82 N18       29.98R
BLAIR          LGT RAIN  42  40  95 N15G24    29.98R
FREMONT        RAIN      42  41  99 N10G16    30.00S
MILLARD        LGT RAIN  45  42  90 N5G18     29.98S
OFFUTT AFB     LGT RAIN  43  40  89 N13G22    29.96R
PLATTSMOUTH    RAIN      43  40  89 N10G16    29.96R
WAHOO          CLOUDY    42  40  91 N13G21    30.00R
$$



USA.gov is the U.S. government's official web portal to all federal, state and local government web resources and services.